Amritsar, India

1:31 PM IST on February 11, 2016 (GMT +0530)
Amritsar

Weather History for VIAR - December, 2012

Change the Weather History Date:

Monday, December 3, 2012

  Actual Average Record
Temperature  
Mean Temperature 56 °F -  
Max Temperature 73 °F 69 °F 90 °F (2014)
Min Temperature 40 °F 43 °F 37 °F (2005)
Degree Days  
Heating Degree Days 8    
Growing Degree Days 6 (Base 50)    
Moisture  
Dew Point 48 °F    
Average Humidity 71    
Maximum Humidity 100    
Minimum Humidity 25    
Precipitation  
Precipitation 0.00 in - - ()
Sea Level Pressure  
Sea Level Pressure 30.06 in    
Wind  
Wind Speed 1 mph ()    
Max Wind Speed 5 mph    
Max Gust Speed 13 mph    
Visibility 2.1 miles    
Events Fog    
Averages and records for this station are not official NWS values.
T = Trace of Precipitation, MM = Missing Value Source: Averaged Metar Reports

Daily Weather History Graph

Daily Weather History Graph

Search for Another Location

Airport or City:

Trip Planner

Search our weather history database for the weather conditions in past years. The results will help you decide how hot, cold, wet, or windy it might be!

Date:

Astronomy

Dec. 03, 2012 Rise Set
Actual Time 7:14 AM IST 5:26 PM IST
Civil Twilight 6:47 AM IST 5:53 PM IST
Nautical Twilight 6:17 AM IST 6:23 PM IST
Astronomical Twilight 5:47 AM IST 6:52 PM IST
Moon 9:37 PM IST (12/3) 10:29 AM IST (12/3)
Length of Visible Light 11h 05m
Length of Day
10h 12m
Waning Gibbous, 82% of the Moon is Illuminated
Dec 3
Waning Gibbous
Dec 6
Last Quarter
Dec 13
New
Dec 20
First Quarter
Dec 28
Full

Hourly Weather History & Observations

Time (IST) Temp. Dew Point Humidity Pressure Visibility Wind Dir Wind Speed Gust Speed Precip Events Conditions
12:00 AM 55.4 °F 51.8 °F 88% 30.06 in 1.2 mi Calm Calm - N/A   Scattered Clouds
2:00 AM 53.6 °F 51.8 °F 94% 30.06 in 1.2 mi Calm Calm - N/A   Scattered Clouds
2:30 AM 52 °F 50 °F 92% 30.07 in 1 mi Calm Calm - -   Mist
2:30 AM 51.8 °F 51.8 °F 100% 30.04 in 1.2 mi Calm Calm - N/A   Mist
3:00 AM 50.0 °F 50.0 °F 100% 30.04 in 1.2 mi Calm Calm - N/A   Mist
3:30 AM 50.0 °F 50.0 °F 100% 30.04 in 0.7 mi Calm Calm - N/A   Mist
4:30 AM 46.4 °F 46.4 °F 100% 30.04 in 0.1 mi Calm Calm - N/A   Mist
5:00 AM 46.4 °F 46.4 °F 100% 30.04 in 0.0 mi Calm Calm - N/A   Mist
5:30 AM 45 °F 45 °F 98% 30.07 in 0 mi Calm Calm - - Fog Patches of Fog
8:00 AM 42.8 °F 41.0 °F 93% 30.09 in 0.1 mi Calm Calm - N/A Fog Fog
8:30 AM 44 °F 43 °F 93% 30.12 in 1 mi Calm Calm - -   Mist
9:00 AM 46.4 °F 44.6 °F 93% 30.09 in 1.1 mi Calm Calm - N/A   Mist
9:30 AM 50.0 °F 46.4 °F 87% 30.12 in 1.2 mi Calm Calm - N/A   Mist
11:00 AM 55.4 °F 46.4 °F 72% 30.12 in 1.9 mi Calm Calm - N/A   Haze
11:30 AM 60.8 °F 46.4 °F 59% 30.12 in 2.5 mi Variable 3.5 mph - N/A   Haze
1:00 PM 68.0 °F 44.6 °F 43% 30.09 in 3.7 mi Variable 2.3 mph - N/A   Unknown
1:30 PM 68.0 °F 41.0 °F 37% 30.09 in 3.7 mi Variable 3.5 mph - N/A   Unknown
2:00 PM 68.0 °F 41.0 °F 37% 30.06 in 3.7 mi Variable 4.6 mph - N/A   Unknown
2:30 PM 69 °F 41 °F 25% 30.05 in 2 mi 3.5 mph - -  
2:30 PM 68.0 °F 41.0 °F 37% 30.06 in 3.7 mi Variable 3.5 mph - N/A   Unknown
3:00 PM 68.0 °F 41.0 °F 37% 30.06 in 3.7 mi Variable 1.2 mph 12.7 mph N/A   Unknown
3:30 PM 68.0 °F 41.0 °F 37% 30.04 in 3.7 mi Variable 2.3 mph - N/A   Unknown
4:00 PM 68.0 °F 41.0 °F 37% 30.04 in 3.7 mi Variable 2.3 mph - N/A   Unknown
4:30 PM 66.2 °F 41.0 °F 40% 30.04 in 3.7 mi Variable 2.3 mph - N/A   Unknown
5:30 PM 66 °F 49 °F 43% 30.03 in 2 mi Calm Calm - -  
5:30 PM 66.2 °F 48.2 °F 52% 30.04 in 3.7 mi Calm Calm - N/A   Unknown
6:00 PM 66.2 °F 50.0 °F 56% 30.04 in 3.1 mi Calm Calm - N/A   Unknown
6:30 PM 64.4 °F 50.0 °F 59% 30.04 in 2.5 mi Calm Calm - N/A   Haze
7:00 PM 64.4 °F 50.0 °F 59% 30.04 in 2.5 mi Calm Calm - N/A   Haze
7:30 PM 64.4 °F 50.0 °F 59% 30.04 in 2.5 mi Calm Calm - N/A   Haze
8:00 PM 64.4 °F 50.0 °F 59% 30.06 in 2.5 mi Calm Calm - N/A   Haze
8:30 PM 60.8 °F 53.6 °F 77% 30.06 in 2.5 mi Calm Calm - N/A   Haze
9:00 PM 60.8 °F 53.6 °F 77% 30.06 in 2.5 mi Calm Calm - N/A   Haze
10:00 PM 59.0 °F 51.8 °F 77% 30.06 in 2.5 mi Calm Calm - N/A   Haze
10:30 PM 57.2 °F 55.4 °F 94% 30.06 in 2.2 mi Calm Calm - N/A   Mist
11:00 PM 57.2 °F 55.4 °F 94% 30.06 in 2.2 mi Calm Calm - N/A   Mist
11:30 PM 55 °F 54 °F 96% 30.06 in 1 mi Calm Calm - -   Mist
11:30 PM 57.2 °F 55.4 °F 94% 30.06 in 1.9 mi Calm Calm - N/A   Mist